Stations météo

Publicité
Ouessant, France (7100): Température de l'air & dewpoint: 12.08.2017 03:00:00 - 18.08.2017 03:00:00 (CEST)Ouessant, France (7100): Vitesse du vent & gusts: 12.08.2017 03:00:00 - 18.08.2017 03:00:00 (CEST)Ouessant, France (7100): Direction du vent: 12.08.2017 03:00:00 - 18.08.2017 03:00:00 (CEST)Ouessant, France (7100): reduced air pressure: 12.08.2017 03:00:00 - 18.08.2017 03:00:00 (CEST)Ouessant, France (7100): visibility: 12.08.2017 03:00:00 - 18.08.2017 03:00:00 (CEST)Ouessant, France (7100): Quantités de précipitations: 12.08.2017 03:00:00 - 18.08.2017 03:00:00 (CEST)
Date & Time tt [°C] td [°C] ff [km/h] ff [knt] fx [km/h] fx [knt] dd ppp [hPa] vv [km] rr [mm]
18.08.2017 03:00:00 16,1 15,3 28 15 40 22 W 1014,2 - 0,0
18.08.2017 02:00:00 16,5 16,0 24 13 38 20 WSW 1014,8 6 0,0
18.08.2017 01:00:00 16,7 16,4 25 14 35 19 SW 1014,9 - 0,0
18.08.2017 00:00:00 16,8 16,3 23 13 35 19 SW 1014,9 - 0,0
17.08.2017 23:00:00 16,7 16,2 23 13 34 18 SW 1014,7 - 0,0
17.08.2017 22:00:00 16,8 16,3 20 11 29 15 SW 1014,7 - 0,0
17.08.2017 21:00:00 17,4 16,6 16 9 26 14 SW 1014,7 - 0,0
17.08.2017 20:00:00 18,3 17,0 22 12 32 18 SW 1015,0 8 0,0
17.08.2017 19:00:00 18,6 17,3 27 15 40 22 SW 1015,0 - 0,0
17.08.2017 18:00:00 19,0 17,7 25 13 46 25 SW 1015,4 - 0,0
17.08.2017 17:00:00 19,5 17,6 30 16 45 24 SW 1015,4 6 0,0
17.08.2017 16:00:00 20,2 18,1 31 17 44 24 SW 1015,2 - 0,0
17.08.2017 15:00:00 19,5 17,6 31 17 45 24 SW 1015,3 - 0,0
17.08.2017 14:00:00 19,9 18,2 27 14 47 25 WSW 1015,4 10 0,0
17.08.2017 13:00:00 19,6 19,1 31 17 44 24 SW 1015,3 - 0,0
17.08.2017 12:00:00 18,0 17,8 26 14 36 19 SW 1015,4 - 0,0
17.08.2017 11:00:00 17,7 17,5 21 11 31 17 SW 1015,3 4,0 0,0
17.08.2017 10:00:00 17,1 16,9 20 11 29 15 SW 1015,3 - 0,0
17.08.2017 09:00:00 16,9 16,7 22 12 35 19 W 1014,9 - 0,0
17.08.2017 08:00:00 16,7 16,5 24 13 36 19 WSW 1014,0 6 0,0
17.08.2017 07:00:00 17,0 16,8 23 13 40 22 WSW 1013,6 - 0,0
17.08.2017 06:00:00 17,2 17,0 28 15 47 26 WSW 1013,3 - 0,0
17.08.2017 05:00:00 17,3 17,1 30 16 44 24 WSW 1013,3 0,1 0,0
17.08.2017 04:00:00 17,4 17,2 32 17 47 25 WSW 1013,5 - 0,0
17.08.2017 03:00:00 17,4 17,2 31 17 47 25 SW 1013,6 - 0,2
17.08.2017 02:00:00 17,6 17,4 33 18 49 27 SW 1013,5 0,1 0,2
17.08.2017 01:00:00 17,4 17,2 30 16 49 27 SW 1013,9 - 0,4
17.08.2017 00:00:00 16,6 16,4 31 17 49 27 SSW 1014,3 - 0,2
16.08.2017 23:00:00 16,2 16,0 35 19 51 28 S 1014,6 0,1 1,8
16.08.2017 22:00:00 16,0 15,8 37 20 55 30 S 1015,1 - 0,0
16.08.2017 21:00:00 15,9 15,7 36 19 58 31 S 1015,7 - 0,0
16.08.2017 20:00:00 15,7 15,4 40 22 58 31 S 1016,0 0,1 0,2
16.08.2017 19:00:00 15,9 15,3 37 20 56 31 S 1016,5 - 0,2
16.08.2017 18:00:00 15,0 14,5 34 18 54 29 S 1017,2 - 0,8
16.08.2017 17:00:00 16,1 14,8 36 19 54 29 S 1017,6 11 0,0
16.08.2017 16:00:00 16,5 15,4 25 13 51 28 SSE 1018,0 - 0,2
16.08.2017 15:00:00 17,6 15,2 26 14 48 26 S 1018,5 - 0,0
16.08.2017 14:00:00 17,9 14,8 29 16 50 27 S 1018,9 18 0,0
16.08.2017 13:00:00 17,8 15,1 29 16 46 25 S 1019,2 - 0,0
16.08.2017 12:00:00 17,0 14,8 31 17 50 27 S 1019,7 - 0,0
16.08.2017 11:00:00 16,6 15,0 29 16 45 24 S 1019,6 18 0,0
16.08.2017 10:00:00 15,9 14,8 22 12 40 21 SSE 1019,4 - 0,0
16.08.2017 09:00:00 15,4 14,6 26 14 40 22 S 1019,9 - 0,0
16.08.2017 08:00:00 14,7 14,1 26 14 37 20 S 1019,6 18 0,0
16.08.2017 07:00:00 14,4 13,6 25 14 35 19 S 1019,5 - 0,0
16.08.2017 06:00:00 14,7 13,7 23 13 32 18 S 1019,6 - 0,0
16.08.2017 05:00:00 14,7 13,2 22 12 29 15 S 1019,9 25 0,0
16.08.2017 04:00:00 14,7 13,4 20 11 26 14 S 1020,4 - 0,0
16.08.2017 03:00:00 14,6 13,1 18 10 22 12 S 1020,7 - 0,0
16.08.2017 02:00:00 14,3 13,2 15 8 16 9 S 1021,1 25 0,0
16.08.2017 01:00:00 13,8 13,0 11 6 12 7 S 1021,2 - 0,0
16.08.2017 00:00:00 13,6 12,3 8 4 9 5 S 1021,1 - 0,0
15.08.2017 23:00:00 13,5 11,7 8 4 11 6 W 1021,2 25 0,0
15.08.2017 22:00:00 14,2 12,4 9 5 14 7 W 1021,0 - 0,0
15.08.2017 21:00:00 15,6 13,1 10 6 13 7 WNW 1020,7 - 0,0
15.08.2017 20:00:00 17,0 12,9 10 6 16 9 WNW 1020,2 30 0,0
15.08.2017 19:00:00 17,9 13,6 12 6 21 12 WNW 1019,8 - 0,0
15.08.2017 18:00:00 18,6 13,9 16 9 25 14 WNW 1019,7 - 0,0
15.08.2017 17:00:00 18,9 14,0 19 10 23 13 WNW 1019,8 30 0,0
15.08.2017 16:00:00 18,8 13,9 16 9 23 12 WNW 1019,7 - 0,0
15.08.2017 15:00:00 19,2 14,5 11 6 20 11 NW 1019,5 - 0,0
15.08.2017 14:00:00 18,6 14,5 10 6 21 11 NNW 1019,1 - 0,0
15.08.2017 13:00:00 18,4 14,5 13 7 25 14 NNW 1018,6 - 0,0
15.08.2017 12:00:00 17,5 13,8 18 10 31 17 NNW 1018,4 - 0,0
15.08.2017 11:00:00 17,1 14,9 16 8 23 12 NNW 1017,9 20 0,0
15.08.2017 10:00:00 15,5 14,0 12 7 22 12 NNW 1017,2 - 0,0
15.08.2017 09:00:00 14,9 14,3 21 11 27 15 NNW 1016,7 - 0,0
15.08.2017 08:00:00 15,1 14,6 19 10 26 14 NNW 1016,0 18 0,0
15.08.2017 07:00:00 15,6 15,3 14 8 18 10 NW 1015,2 - 0,0
15.08.2017 06:00:00 15,1 14,6 11 6 14 8 WSW 1014,8 - 0,0
15.08.2017 05:00:00 14,8 14,3 12 7 20 11 WSW 1014,5 - 0,0
15.08.2017 04:00:00 14,9 14,3 16 8 17 9 WSW 1014,5 - 0,0
15.08.2017 03:00:00 14,9 13,9 7 4 8 5 W 1014,6 - 0,0
15.08.2017 02:00:00 14,8 13,7 5 3 9 5 NNW 1014,7 20 0,0
15.08.2017 01:00:00 14,8 13,2 8 5 10 6 N 1014,6 - 0,0
15.08.2017 00:00:00 14,6 13,5 8 5 16 9 NE 1014,6 - 0,0
14.08.2017 23:00:00 14,3 13,5 10 5 18 10 N 1014,3 20 0,0
14.08.2017 22:00:00 14,2 13,4 12 6 21 11 N 1014,1 - 0,0
14.08.2017 21:00:00 14,5 13,4 16 9 24 13 NNW 1013,8 - 0,0
14.08.2017 20:00:00 16,2 14,0 12 7 - - WNW 1013,8 22 0,0
14.08.2017 19:00:00 19,0 14,7 9 5 19 11 SSW 1013,9 - 0,0
14.08.2017 18:00:00 17,9 14,8 8 4 18 10 S 1013,8 - 0,0
14.08.2017 17:00:00 16,4 14,1 13 7 17 9 ESE 1014,1 15 0,0
14.08.2017 16:00:00 17,0 14,5 14 7 20 11 E 1014,8 - 0,0
14.08.2017 15:00:00 15,0 14,0 12 7 21 12 NE 1015,0 - 0,0
14.08.2017 14:00:00 15,0 14,4 16 9 23 12 NE 1015,0 - 1,4
14.08.2017 13:00:00 14,9 13,9 10 5 18 10 WNW 1016,5 - 1,0
14.08.2017 12:00:00 15,2 13,7 11 6 16 8 WNW 1016,7 - 0,0
14.08.2017 11:00:00 16,2 14,6 4 2 11 6 ESE 1015,9 15 0,0
14.08.2017 10:00:00 15,2 14,1 7 4 13 7 NNW 1016,2 - 0,0
14.08.2017 09:00:00 14,5 13,7 7 4 29 16 WNW 1016,4 - 0,0
14.08.2017 08:00:00 14,0 13,2 14 7 34 18 SSE 1016,0 15 0,8
14.08.2017 07:00:00 13,6 12,7 11 6 30 16 SSE 1016,4 - 0,2
14.08.2017 06:00:00 13,4 11,8 5 3 12 7 SSE 1017,3 - 0,0
14.08.2017 05:00:00 13,5 11,5 0 0 16 8 N 1017,9 20 0,0
14.08.2017 04:00:00 13,5 11,4 14 7 18 10 E 1017,9 - 0,0
14.08.2017 03:00:00 13,1 11,5 11 6 18 10 ESE 1018,5 - 0,0
14.08.2017 02:00:00 13,2 11,6 13 7 16 9 ESE 1019,1 20 0,0
14.08.2017 01:00:00 13,2 12,3 12 7 16 8 ESE 1019,8 - 0,0
14.08.2017 00:00:00 13,1 11,8 8 4 16 8 E 1020,4 - 0,0
13.08.2017 23:00:00 13,3 10,7 4 2 9 5 E 1020,8 20 0,0
13.08.2017 22:00:00 13,5 10,3 9 5 11 6 SW 1020,8 - 0,0
13.08.2017 21:00:00 15,3 11,3 8 4 11 6 SW 1020,7 - 0,0
13.08.2017 20:00:00 17,5 11,5 8 4 20 11 SW 1020,7 35 0,0
13.08.2017 19:00:00 17,6 12,3 12 7 17 9 SSW 1020,9 - 0,0
13.08.2017 18:00:00 16,8 11,9 13 7 18 10 S 1021,5 - 0,0
13.08.2017 17:00:00 17,4 11,4 14 7 19 11 S 1021,8 35 0,0
13.08.2017 16:00:00 17,2 11,7 11 6 20 11 SSE 1022,1 - 0,0
13.08.2017 15:00:00 17,3 11,6 8 4 16 9 SSE 1022,3 30 0,0
13.08.2017 14:00:00 17,2 11,9 9 5 15 8 ESE 1022,7 - 0,0
13.08.2017 13:00:00 16,6 11,5 8 5 15 8 ESE 1022,8 - 0,0
13.08.2017 12:00:00 16,3 11,4 6 3 9 5 ESE 1023,0 - 0,0
13.08.2017 11:00:00 15,9 10,9 3 2 8 4 ESE 1023,1 - 0,0
13.08.2017 10:00:00 15,4 10,6 4 2 6 3 ESE 1022,9 - 0,0
13.08.2017 09:00:00 15,0 10,4 4 2 6 3 N 1022,6 - 0,0
13.08.2017 08:00:00 14,3 9,9 4 2 5 3 W 1022,3 35 0,0
13.08.2017 07:00:00 14,1 9,5 0 0 10 6 N 1022,1 - 0,0
13.08.2017 06:00:00 14,2 9,6 2 1 10 5 S 1022,2 - 0,0
13.08.2017 05:00:00 14,7 9,5 6 3 11 6 N 1022,3 - 0,0
13.08.2017 04:00:00 14,6 10,2 5 3 13 7 N 1022,5 - 0,0
13.08.2017 03:00:00 14,6 11,0 10 5 18 10 NNW 1022,7 - 0,0
13.08.2017 02:00:00 14,8 11,4 8 4 16 9 N 1023,0 20 0,0
13.08.2017 01:00:00 14,8 11,8 11 6 17 9 NNW 1023,2 - 0,0
13.08.2017 00:00:00 14,8 11,6 13 7 22 12 NNW 1023,1 - 0,0
12.08.2017 23:00:00 14,7 11,5 12 7 21 11 NNW 1023,2 30 0,0
12.08.2017 22:00:00 14,8 12,3 14 8 22 12 NNW 1022,9 - 0,0
12.08.2017 21:00:00 15,4 13,1 17 9 27 14 NNW 1022,4 - 0,0
12.08.2017 20:00:00 16,0 13,1 12 7 19 10 WNW 1022,4 30 0,0
12.08.2017 19:00:00 17,4 12,5 13 7 19 10 WNW 1022,2 - 0,0
12.08.2017 18:00:00 16,7 13,8 11 6 24 13 NNW 1022,3 - 0,0
12.08.2017 17:00:00 17,0 14,3 9 5 16 8 NNW 1022,2 25 0,0
12.08.2017 16:00:00 16,6 14,1 8 4 22 12 N 1022,1 - 0,0
12.08.2017 15:00:00 17,4 14,9 16 9 26 14 NNW 1022,2 - 0,0
12.08.2017 14:00:00 17,7 14,4 18 10 32 17 NNW 1021,9 - 0,0
12.08.2017 13:00:00 16,9 14,7 18 10 28 15 NW 1021,8 - 0,0
12.08.2017 12:00:00 16,1 15,8 18 10 36 20 NNW 1021,3 - 0,0
12.08.2017 11:00:00 15,4 15,1 23 13 30 16 NNW 1020,7 3,0 0,0
12.08.2017 10:00:00 16,0 15,8 21 12 29 16 WNW 1020,2 - 0,0
12.08.2017 09:00:00 15,9 15,7 22 12 31 17 WNW 1019,7 - 0,0
12.08.2017 08:00:00 15,7 15,5 25 14 36 20 WNW 1019,2 2,0 0,0
12.08.2017 07:00:00 15,9 15,7 29 16 40 21 W 1018,9 - 0,0
12.08.2017 06:00:00 16,0 15,8 29 15 41 22 W 1018,8 - 0,0
12.08.2017 05:00:00 16,1 15,8 28 15 40 21 W 1019,1 0,5 0,0
12.08.2017 04:00:00 16,3 16,0 26 14 38 21 WSW 1019,3 - 0,2
12.08.2017 03:00:00 16,2 15,9 24 13 40 22 WSW 1019,9 - 0,2

tt = Température de l'air
td = dewpoint
ff = Vitesse du vent
fx = gusts
dd = Direction du vent
ppp = reduced air pressure
vv = visibility
rr = Quantités de précipitations

stations d'obs. à proximité